Location: Audinghen
(50.8518°N, 1.6129°E)
Time: 10:42:57
(UTC+00:00)

Cosmos 2219 - Pass Details

Date: 07 August 2020
Orbit: 834 x 860 km, 71.1° (Epoch: 20 September)

Event Time Altitude Azimuth Distance (km) Brightness Sun altitude
Exits shadow 00:45:29 26° 133° (SE) 1,588 4.3 -22.1°
Maximum altitude 00:47:02 30° 105° (ESE) 1,456 4.4 -22.0°
Drops below altitude 10° 00:51:51 10° 46° (NE) 2,454 6.4 -21.8°
Sets 00:54:33 0° 36° (NE) 3,393 7.5 -21.7°
